Home   Weather   Birmingham   Past weeks

Flag for USA Past Weather in Birmingham, Alabama, USA — Yesterday and Last 2 Weeks

59 °F

Passing clouds.

Feels Like: 59 °F
Forecast: 61 / 84 °F
Wind: No wind

Location: Birmingham International Airport

Current Time: Oct 28, 2016 at 7:23:13 AM

Latest Report: Oct 28, 2016 at 6:53 AM

Visibility: 7 mi

Pressure: 30.26 "Hg

Humidity: 87%

Dew Point: 55 °F

Location of BirminghamLocation

Past Weather in Birmingham — Graph


Birmingham Temperature Yesterday

Maximum temperature yesterday: 84 °F (at 2:53 PM)
Minimum temperature yesterday: 64 °F (at 6:53 AM)
Average temperature yesterday: 73 °F

High & Low Weather Summary for the Past Weeks

High90 °F (Oct 19, 2:53 PM)87% (Oct 16, 10:53 PM)30.32 "Hg (Oct 16, 10:53 PM)
Low43 °F (Oct 22, 5:53 AM)18% (Oct 24, 2:53 PM)29.91 "Hg (Oct 20, 3:53 PM)
Average70 °F56%30.14 "Hg
* Reported Oct 13 5:53 AM — Oct 28 5:53 AM, Birmingham, Weather by CustomWeather, © 2016

Note: Actual official high and low records may vary slightly from our data, if they occured in-between our weather recording intervals... More about our weather records


Birmingham Weather History for the Previous 24 Hours

Scroll right to see more
Time TempWeatherWind HumidityBarometerVisibility
5:53 AM
Fri, Oct 28
61 °FClear.No wind81%30.24 "Hg10 mi
4:53 AM60 °FPassing clouds.No wind86%30.23 "Hg10 mi
3:53 AM62 °FPassing clouds.No wind80%30.22 "Hg10 mi
2:53 AM63 °FClear.No wind81%30.22 "Hg10 mi
1:53 AM67 °FPartly cloudy.No wind68%30.22 "Hg10 mi
12:53 AM65 °FPassing clouds.No wind76%30.23 "Hg10 mi
11:53 PM
Thu, Oct 27
67 °FPassing clouds.No wind71%30.23 "Hg10 mi
10:53 PM66 °FClear.No wind73%30.23 "Hg10 mi
9:53 PM68 °FPassing clouds.No wind68%30.23 "Hg10 mi
8:53 PM70 °FPassing clouds.3 mph64%30.23 "Hg10 mi
7:53 PM75 °FPassing clouds.No wind50%30.22 "Hg10 mi
6:53 PM78 °FOvercast.5 mph43%30.21 "Hg10 mi
5:53 PM80 °FPartly sunny.7 mph41%30.20 "Hg10 mi
4:53 PM82 °FPartly sunny.9 mph37%30.19 "Hg10 mi
3:53 PM82 °FScattered clouds.7 mph38%30.19 "Hg10 mi
2:53 PM84 °FScattered clouds.7 mph36%30.20 "Hg10 mi
1:53 PM83 °FScattered clouds.13 mph38%30.22 "Hg10 mi
12:53 PM81 °FPartly sunny.9 mph42%30.24 "Hg10 mi
11:53 AM79 °FPartly sunny.6 mph48%30.28 "Hg10 mi
10:53 AM77 °FPartly sunny.8 mph56%30.29 "Hg10 mi
9:53 AM74 °FOvercast.5 mph67%30.29 "Hg10 mi
8:53 AM71 °FOvercast.No wind71%30.29 "Hg10 mi
7:53 AM66 °FOvercast.No wind81%30.27 "Hg10 mi
Weather by CustomWeather, © 2016

See weather overviewHow to use our weather pages